EWG7060 EDDH-EDDL

Flight info

Callsign EWG7060
Flight time 0h 57m
Altitude 26000
Route HABFU1G HABFU Y348 MAWEQ Z718 OSNAD M170 HMM/N0402F240 T851 HALME HALME1A
Aircraft A320/M-SDE3FGHIRWY/LB1

Departure

Time 2026-05-06 18:48
Airport Hamburg Helmut Schmidt Airport (EDDH)

Arrival

Time 2026-05-06 19:45
Airport Düsseldorf Airport (EDDL)
Time Latitude Longitude Altitude Speed Heading
2026-05-06 18:16 53.62772 10.00271 41 ft 0 kts 63°
2026-05-06 18:30 53.62763 10.00241 44 ft 4 kts 63°
2026-05-06 18:31 53.62751 10.00201 39 ft 4 kts 74°
2026-05-06 18:31 53.62751 10.00160 39 ft 4 kts 128°
2026-05-06 18:31 53.62762 10.00143 41 ft 0 kts 152°
2026-05-06 18:34 53.62718 10.00182 44 ft 12 kts 153°
2026-05-06 18:34 53.62647 10.00242 43 ft 11 kts 152°
2026-05-06 18:34 53.62583 10.00242 42 ft 9 kts 225°
2026-05-06 18:35 53.62570 10.00204 42 ft 0 kts 244°
2026-05-06 18:44 53.62567 10.00192 42 ft 6 kts 243°
2026-05-06 18:44 53.62553 10.00039 42 ft 14 kts 297°
2026-05-06 18:44 53.62580 9.99992 43 ft 0 kts 329°
2026-05-06 18:47 53.62678 9.99907 45 ft 50 kts 333°
2026-05-06 18:47 53.63200 9.99456 48 ft 116 kts 333°
2026-05-06 18:48 53.63748 9.98986 49 ft 150 kts 332°
2026-05-06 18:48 53.65094 9.97856 584 ft 171 kts 336°
2026-05-06 18:48 53.65824 9.97236 1018 ft 176 kts 337°
2026-05-06 18:48 53.66914 9.96298 1730 ft 180 kts 338°
2026-05-06 18:49 53.68519 9.94936 2179 ft 211 kts 338°
2026-05-06 18:49 53.69855 9.93795 2906 ft 217 kts 337°
2026-05-06 18:49 53.71095 9.92311 3722 ft 226 kts 309°
2026-05-06 18:49 53.71632 9.89747 4307 ft 248 kts 272°
2026-05-06 18:50 53.71517 9.87717 4591 ft 266 kts 259°
2026-05-06 18:50 53.70978 9.84638 5266 ft 279 kts 250°
2026-05-06 18:50 53.70272 9.81576 6199 ft 282 kts 249°
2026-05-06 18:50 53.69533 9.78491 7112 ft 284 kts 249°
2026-05-06 18:51 53.68811 9.75375 7993 ft 287 kts 250°
2026-05-06 18:51 53.68112 9.72194 8658 ft 292 kts 251°
2026-05-06 18:51 53.67442 9.69000 8850 ft 291 kts 252°
2026-05-06 18:51 53.66788 9.65769 8894 ft 291 kts 252°
2026-05-06 18:52 53.66133 9.62542 8897 ft 291 kts 249°
2026-05-06 18:52 53.65173 9.59546 8897 ft 292 kts 235°
2026-05-06 18:52 53.63817 9.57012 8897 ft 292 kts 221°
2026-05-06 18:52 53.62140 9.55076 8897 ft 293 kts 208°
2026-05-06 18:53 53.60327 9.53432 8896 ft 293 kts 208°
2026-05-06 18:53 53.58542 9.51801 9071 ft 292 kts 208°
2026-05-06 18:53 53.56746 9.50159 9640 ft 295 kts 208°
2026-05-06 18:53 53.54910 9.48478 10200 ft 311 kts 209°
2026-05-06 18:54 53.52964 9.46692 10459 ft 334 kts 209°
2026-05-06 18:54 53.50884 9.44784 10995 ft 345 kts 209°
2026-05-06 18:54 53.48757 9.42836 11754 ft 349 kts 209°
2026-05-06 18:54 53.46614 9.40885 12542 ft 352 kts 209°
2026-05-06 18:55 53.44454 9.38922 13324 ft 355 kts 209°
2026-05-06 18:55 53.42273 9.36939 14046 ft 358 kts 208°
2026-05-06 18:55 53.39954 9.35399 14707 ft 362 kts 192°
2026-05-06 18:55 53.37433 9.35244 15382 ft 366 kts 176°
2026-05-06 18:56 53.34892 9.35693 16069 ft 368 kts 174°
2026-05-06 18:56 53.32341 9.36203 16759 ft 371 kts 174°
2026-05-06 18:56 53.29771 9.36729 17394 ft 373 kts 174°
2026-05-06 18:56 53.27179 9.37266 18055 ft 377 kts 174°
2026-05-06 18:57 53.24569 9.37811 18633 ft 379 kts 174°
2026-05-06 18:57 53.21935 9.38362 19186 ft 383 kts 174°
2026-05-06 18:57 53.19285 9.38919 19693 ft 386 kts 174°
2026-05-06 18:57 53.16617 9.39481 19854 ft 387 kts 174°
2026-05-06 18:58 53.13943 9.39670 19888 ft 384 kts 187°
2026-05-06 18:58 53.11375 9.38579 19888 ft 381 kts 205°
2026-05-06 18:58 53.09062 9.36466 19952 ft 382 kts 211°
2026-05-06 18:58 53.06762 9.34208 20516 ft 385 kts 211°
2026-05-06 18:59 53.04449 9.31943 21092 ft 388 kts 211°
2026-05-06 18:59 53.02112 9.29664 21643 ft 391 kts 211°
2026-05-06 18:59 52.99754 9.27371 22173 ft 394 kts 211°
2026-05-06 18:59 52.97376 9.25061 22699 ft 398 kts 211°
2026-05-06 19:00 52.95012 9.22763 23197 ft 401 kts 211°
2026-05-06 19:00 52.92593 9.20415 23654 ft 404 kts 212°
2026-05-06 19:00 52.90158 9.18057 24074 ft 407 kts 211°
2026-05-06 19:00 52.87708 9.15687 24489 ft 409 kts 211°
2026-05-06 19:01 52.85245 9.13305 24892 ft 411 kts 211°
2026-05-06 19:01 52.82765 9.10911 25293 ft 413 kts 211°
2026-05-06 19:01 52.80278 9.08519 25678 ft 415 kts 211°
2026-05-06 19:01 52.77772 9.06112 25850 ft 416 kts 211°
2026-05-06 19:02 52.75289 9.03728 25888 ft 410 kts 211°
2026-05-06 19:02 52.72830 9.01366 25880 ft 408 kts 211°
2026-05-06 19:02 52.70376 8.99016 25879 ft 407 kts 211°
2026-05-06 19:02 52.67924 8.96673 25878 ft 407 kts 211°
2026-05-06 19:03 52.65472 8.94333 25879 ft 407 kts 211°
2026-05-06 19:03 52.63020 8.91995 25882 ft 407 kts 211°
2026-05-06 19:03 52.60574 8.89665 25880 ft 407 kts 211°
2026-05-06 19:03 52.58120 8.87330 25877 ft 407 kts 211°
2026-05-06 19:04 52.55672 8.85005 25874 ft 407 kts 211°
2026-05-06 19:04 52.53218 8.82677 25871 ft 407 kts 211°
2026-05-06 19:04 52.50768 8.80355 25870 ft 407 kts 211°
2026-05-06 19:04 52.48319 8.78034 25868 ft 406 kts 211°
2026-05-06 19:05 52.45870 8.75715 25867 ft 406 kts 211°
2026-05-06 19:05 52.43501 8.73207 25864 ft 405 kts 221°
2026-05-06 19:05 52.41599 8.69845 25865 ft 402 kts 233°
2026-05-06 19:05 52.39908 8.66201 25862 ft 402 kts 233°
2026-05-06 19:06 52.38217 8.62538 25862 ft 402 kts 233°
2026-05-06 19:06 52.36530 8.58885 25863 ft 402 kts 233°
2026-05-06 19:06 52.34843 8.55240 25864 ft 402 kts 233°
2026-05-06 19:06 52.33152 8.51590 25865 ft 402 kts 233°
2026-05-06 19:07 52.31461 8.47943 25869 ft 402 kts 233°
2026-05-06 19:07 52.29770 8.44298 25871 ft 402 kts 233°
2026-05-06 19:07 52.28080 8.40661 25870 ft 402 kts 233°
2026-05-06 19:07 52.26390 8.37033 25870 ft 402 kts 233°
2026-05-06 19:08 52.24693 8.33404 25870 ft 402 kts 232°
2026-05-06 19:08 52.22958 8.29833 25869 ft 402 kts 231°
2026-05-06 19:08 52.21226 8.26407 25872 ft 401 kts 230°
2026-05-06 19:08 52.19433 8.22884 25889 ft 405 kts 231°
2026-05-06 19:09 52.17634 8.19363 25895 ft 403 kts 230°
2026-05-06 19:09 52.15832 8.15860 25899 ft 402 kts 230°
2026-05-06 19:09 52.14035 8.12381 25903 ft 402 kts 230°
2026-05-06 19:09 52.12234 8.08897 25906 ft 402 kts 230°
2026-05-06 19:10 52.10435 8.05414 25905 ft 402 kts 230°
2026-05-06 19:10 52.08635 8.01936 25909 ft 402 kts 230°
2026-05-06 19:10 52.06835 7.98460 25911 ft 402 kts 230°
2026-05-06 19:10 52.05054 7.95026 25911 ft 402 kts 230°
2026-05-06 19:11 52.03251 7.91556 25913 ft 402 kts 230°
2026-05-06 19:11 52.01445 7.88084 25913 ft 402 kts 230°
2026-05-06 19:11 51.99638 7.84616 25912 ft 402 kts 230°
2026-05-06 19:11 51.97831 7.81152 25904 ft 401 kts 230°
2026-05-06 19:12 51.96041 7.77728 25486 ft 395 kts 230°
2026-05-06 19:12 51.94272 7.74344 24954 ft 392 kts 230°
2026-05-06 19:12 51.92517 7.70988 24419 ft 389 kts 230°
2026-05-06 19:12 51.90774 7.67652 23901 ft 387 kts 230°
2026-05-06 19:13 51.89040 7.64340 23381 ft 384 kts 230°
2026-05-06 19:13 51.87315 7.61054 22815 ft 382 kts 230°
2026-05-06 19:13 51.85599 7.57793 22289 ft 379 kts 230°
2026-05-06 19:13 51.83894 7.54567 21776 ft 376 kts 230°
2026-05-06 19:14 51.82204 7.51370 21272 ft 373 kts 230°
2026-05-06 19:14 51.80526 7.48196 20768 ft 370 kts 230°
2026-05-06 19:14 51.78861 7.45038 20284 ft 368 kts 230°
2026-05-06 19:14 51.77203 7.41899 19804 ft 365 kts 230°
2026-05-06 19:15 51.75557 7.38795 19335 ft 363 kts 230°
2026-05-06 19:15 51.73923 7.35719 18890 ft 360 kts 230°
2026-05-06 19:15 51.72299 7.32661 18423 ft 358 kts 230°
2026-05-06 19:15 51.70685 7.29620 17950 ft 355 kts 231°
2026-05-06 19:16 51.69083 7.26606 17428 ft 354 kts 231°
2026-05-06 19:16 51.67485 7.23608 16913 ft 352 kts 231°
2026-05-06 19:16 51.65887 7.20618 16405 ft 351 kts 231°
2026-05-06 19:16 51.64296 7.17647 15916 ft 350 kts 231°
2026-05-06 19:17 51.62708 7.14684 15427 ft 349 kts 231°
2026-05-06 19:17 51.61131 7.11742 14962 ft 348 kts 231°
2026-05-06 19:17 51.59550 7.08794 14494 ft 348 kts 231°
2026-05-06 19:17 51.57971 7.05854 14033 ft 347 kts 231°
2026-05-06 19:18 51.56394 7.02915 13571 ft 346 kts 231°
2026-05-06 19:18 51.54824 6.99988 13059 ft 345 kts 231°
2026-05-06 19:18 51.53285 6.97132 12592 ft 343 kts 231°
2026-05-06 19:18 51.51721 6.94241 12121 ft 341 kts 231°
2026-05-06 19:19 51.50173 6.91383 11701 ft 338 kts 231°
2026-05-06 19:19 51.48633 6.88542 11190 ft 337 kts 231°
2026-05-06 19:19 51.47102 6.85712 10741 ft 335 kts 231°
2026-05-06 19:19 51.45578 6.82900 10283 ft 333 kts 230°
2026-05-06 19:20 51.44061 6.80105 9905 ft 329 kts 230°
2026-05-06 19:20 51.42589 6.77402 9780 ft 316 kts 230°
2026-05-06 19:20 51.41172 6.74799 9647 ft 304 kts 230°
2026-05-06 19:20 51.39804 6.72287 9422 ft 296 kts 231°
2026-05-06 19:21 51.38457 6.69813 9071 ft 293 kts 231°
2026-05-06 19:21 51.37118 6.67361 8684 ft 292 kts 230°
2026-05-06 19:21 51.35786 6.64924 8289 ft 290 kts 231°
2026-05-06 19:21 51.34467 6.62506 7791 ft 286 kts 231°
2026-05-06 19:22 51.33163 6.60112 7142 ft 285 kts 231°
2026-05-06 19:22 51.31867 6.57736 6498 ft 282 kts 231°
2026-05-06 19:22 51.30578 6.55383 5828 ft 280 kts 230°
2026-05-06 19:22 51.29301 6.53054 5160 ft 278 kts 230°
2026-05-06 19:23 51.28032 6.50744 4486 ft 275 kts 230°
2026-05-06 19:23 51.26773 6.48454 3815 ft 273 kts 230°
2026-05-06 19:23 51.25523 6.46178 3292 ft 272 kts 230°
2026-05-06 19:23 51.24285 6.43925 3016 ft 268 kts 230°
2026-05-06 19:24 51.22943 6.41868 3004 ft 269 kts 212°
2026-05-06 19:24 51.21189 6.40921 3007 ft 269 kts 182°
2026-05-06 19:24 51.19371 6.41411 3008 ft 266 kts 153°
2026-05-06 19:24 51.17910 6.43131 3008 ft 261 kts 126°
2026-05-06 19:25 51.17068 6.45653 3009 ft 258 kts 105°
2026-05-06 19:25 51.16759 6.48388 3005 ft 242 kts 88°
2026-05-06 19:25 51.16935 6.50934 3006 ft 225 kts 73°
2026-05-06 19:25 51.17503 6.53220 3009 ft 220 kts 58°
2026-05-06 19:26 51.18383 6.55211 3010 ft 220 kts 51°
2026-05-06 19:26 51.19315 6.57144 2978 ft 220 kts 51°
2026-05-06 19:26 51.20245 6.59080 2756 ft 219 kts 51°
2026-05-06 19:26 51.21161 6.60988 2467 ft 214 kts 51°
2026-05-06 19:27 51.22043 6.62828 2182 ft 204 kts 50°
2026-05-06 19:27 51.22900 6.64616 1906 ft 199 kts 51°
2026-05-06 19:27 51.23714 6.66318 1673 ft 184 kts 50°
2026-05-06 19:27 51.24444 6.67844 1418 ft 162 kts 50°
2026-05-06 19:28 51.25086 6.69188 1192 ft 144 kts 49°
2026-05-06 19:28 51.25676 6.70421 972 ft 136 kts 50°
2026-05-06 19:28 51.26246 6.71610 789 ft 134 kts 50°
2026-05-06 19:28 51.26811 6.72788 599 ft 134 kts 50°
2026-05-06 19:29 51.27368 6.73967 466 ft 133 kts 52°
2026-05-06 19:29 51.27928 6.75160 245 ft 133 kts 49°
2026-05-06 19:29 51.28461 6.76303 135 ft 121 kts 47°
2026-05-06 19:29 51.28907 6.77355 263 ft 119 kts 52°
2026-05-06 19:30 51.29387 6.78538 941 ft 132 kts 54°
2026-05-06 19:30 51.29915 6.79788 1690 ft 145 kts 52°
2026-05-06 19:30 51.30529 6.81207 2243 ft 165 kts 53°
2026-05-06 19:30 51.31244 6.82799 2820 ft 190 kts 51°
2026-05-06 19:31 51.32401 6.84264 2988 ft 242 kts 22°
2026-05-06 19:31 51.34241 6.84689 3014 ft 290 kts 355°
2026-05-06 19:31 51.37367 6.81667 3001 ft 246 kts 300°
2026-05-06 19:32 51.37779 6.79126 3013 ft 236 kts 277°
2026-05-06 19:32 51.37853 6.76506 3013 ft 235 kts 274°
2026-05-06 19:32 51.38112 6.73970 2998 ft 229 kts 298°
2026-05-06 19:32 51.39109 6.72087 3007 ft 223 kts 331°
2026-05-06 19:33 51.40637 6.71259 3246 ft 244 kts 351°
2026-05-06 19:33 51.42343 6.70810 4136 ft 251 kts 353°
2026-05-06 19:33 51.43521 6.70525 4658 ft 256 kts 353°
2026-05-06 19:33 51.45769 6.69440 4958 ft 260 kts 328°
2026-05-06 19:34 51.46654 6.68137 4997 ft 264 kts 310°
2026-05-06 19:34 51.47393 6.65460 4997 ft 271 kts 282°
2026-05-06 19:34 51.47258 6.62437 5004 ft 277 kts 253°
2026-05-06 19:34 51.46461 6.59608 5004 ft 279 kts 244°
2026-05-06 19:35 51.45549 6.56857 5009 ft 279 kts 243°
2026-05-06 19:35 51.44647 6.54182 4993 ft 264 kts 243°
2026-05-06 19:35 51.43795 6.51683 5004 ft 250 kts 243°
2026-05-06 19:35 51.42962 6.49253 5003 ft 248 kts 243°
2026-05-06 19:36 51.42130 6.46831 5006 ft 248 kts 243°
2026-05-06 19:36 51.41297 6.44404 5011 ft 252 kts 243°
2026-05-06 19:36 51.40460 6.41966 5001 ft 248 kts 243°
2026-05-06 19:36 51.39630 6.39549 5007 ft 247 kts 243°
2026-05-06 19:37 51.38544 6.37428 4976 ft 249 kts 216°
2026-05-06 19:37 51.36971 6.36381 4682 ft 246 kts 189°
2026-05-06 19:37 51.35274 6.36034 4319 ft 246 kts 184°
2026-05-06 19:37 51.33576 6.35787 4039 ft 244 kts 183°
2026-05-06 19:38 51.31888 6.35556 4001 ft 244 kts 183°
2026-05-06 19:38 51.30192 6.35479 4004 ft 242 kts 168°
2026-05-06 19:38 51.28658 6.36461 4010 ft 238 kts 147°
2026-05-06 19:38 51.27260 6.37872 4010 ft 238 kts 144°
2026-05-06 19:39 51.25891 6.39327 3997 ft 232 kts 143°
2026-05-06 19:39 51.24591 6.40709 4006 ft 220 kts 143°
2026-05-06 19:39 51.23324 6.42053 4009 ft 218 kts 143°
2026-05-06 19:39 51.22062 6.43391 3974 ft 217 kts 143°
2026-05-06 19:40 51.20810 6.44720 3695 ft 216 kts 143°
2026-05-06 19:40 51.19561 6.46053 3415 ft 216 kts 143°
2026-05-06 19:40 51.18482 6.47646 3150 ft 209 kts 118°
2026-05-06 19:40 51.17925 6.49717 3019 ft 205 kts 100°
2026-05-06 19:41 51.17796 6.51979 3004 ft 202 kts 82°
2026-05-06 19:41 51.18096 6.54144 3009 ft 201 kts 65°
2026-05-06 19:41 51.18777 6.56032 3001 ft 190 kts 50°
2026-05-06 19:41 51.19538 6.57612 2964 ft 175 kts 50°
2026-05-06 19:42 51.20252 6.59099 2764 ft 163 kts 50°
2026-05-06 19:42 51.20930 6.60510 2541 ft 158 kts 50°
2026-05-06 19:42 51.21595 6.61895 2333 ft 157 kts 51°
2026-05-06 19:42 51.22254 6.63269 2124 ft 155 kts 50°
2026-05-06 19:43 51.22899 6.64616 1904 ft 146 kts 50°
2026-05-06 19:43 51.23489 6.65850 1711 ft 135 kts 49°
2026-05-06 19:43 51.24052 6.67024 1524 ft 132 kts 49°
2026-05-06 19:43 51.24607 6.68183 1344 ft 132 kts 49°
2026-05-06 19:44 51.25161 6.69341 1151 ft 131 kts 49°
2026-05-06 19:44 51.25714 6.70497 964 ft 132 kts 49°
2026-05-06 19:44 51.26270 6.71659 779 ft 132 kts 50°
2026-05-06 19:44 51.26826 6.72828 607 ft 132 kts 48°
2026-05-06 19:45 51.27388 6.73980 406 ft 131 kts 49°
2026-05-06 19:45 51.27932 6.75150 200 ft 131 kts 49°
2026-05-06 19:45 51.28454 6.76240 131 ft 99 kts 52°
2026-05-06 19:45 51.28706 6.76764 140 ft 38 kts 52°
2026-05-06 19:46 51.28906 6.77175 140 ft 51 kts 53°
2026-05-06 19:46 51.29015 6.77539 143 ft 21 kts 123°
2026-05-06 19:46 51.28967 6.77610 144 ft 0 kts 137°
2026-05-06 19:47 51.28912 6.77645 142 ft 17 kts 186°
2026-05-06 19:48 51.28848 6.77526 139 ft 14 kts 233°
2026-05-06 19:48 51.28792 6.77407 140 ft 12 kts 233°
2026-05-06 19:48 51.28731 6.77279 140 ft 22 kts 233°
2026-05-06 19:48 51.28610 6.77021 141 ft 31 kts 232°
2026-05-06 19:49 51.28492 6.76793 138 ft 24 kts 211°
2026-05-06 19:49 51.28342 6.76865 132 ft 23 kts 188°
2026-05-06 19:49 51.28181 6.76835 130 ft 24 kts 185°
2026-05-06 19:49 51.28074 6.76787 126 ft 11 kts 207°
2026-05-06 19:50 51.28061 6.76725 127 ft 0 kts 273°